DateTimeUTC,F1_A11,F1_S11,BsB_S11,BsG_S11,BsR_S11,BbsB_S11,BbsG_S11,BbsR_S11,BaB_A11,BaG_A11,BaR_A11,Tu_S11,T_S11,Uu_S11,U_S11,P_S11,T1_A11
2021-07-17T01:00:00Z,00000200,20000000,,,,,,,-000.34,-000.32,0000.15,18.5,25.1,09.2,06.1,0676.3,31.0
2021-07-17T01:01:00Z,00000200,20000000,,,,,,,0000.34,0000.16,-000.12,18.5,25.2,09.2,06.1,0676.3,31.0
2021-07-17T01:02:00Z,00000200,20000000,,,,,,,0000.10,-000.05,0000.17,18.5,25.2,09.2,06.1,0676.3,31.0
2021-07-17T01:03:00Z,00000200,60000000,,,,,,,-000.11,0000.30,0000.14,18.5,25.2,09.2,06.1,0676.2,31.0
2021-07-17T01:04:00Z,00000200,40000000,0000.89,0000.42,0000.09,-000.06,0000.02,0000.15,0000.18,0000.30,-000.42,18.5,25.0,09.3,06.3,0677.2,31.0
2021-07-17T01:05:00Z,00000200,00000000,0000.95,0000.16,0000.26,0000.01,0000.07,0000.13,-000.07,-000.02,0000.58,18.6,24.9,09.3,06.3,0677.2,31.0
2021-07-17T01:06:00Z,00000200,00000000,0000.59,-000.04,0000.39,0000.55,0000.19,0000.20,0000.31,-000.07,-000.01,18.6,24.9,09.3,06.3,0677.2,31.0
2021-07-17T01:07:00Z,00000200,00000000,0000.14,0000.39,0000.42,0000.86,0000.01,-000.02,0000.15,0000.20,-000.10,18.7,24.9,09.4,06.4,0677.2,31.0
2021-07-17T01:08:00Z,00000200,00000000,0000.87,0000.19,0000.04,-000.34,-000.04,-000.02,0000.13,0000.14,-000.02,18.7,25.0,09.4,06.4,0677.2,31.0
2021-07-17T01:09:00Z,00000200,00000000,0000.20,0000.37,0000.13,0000.20,0000.06,-000.20,-000.22,-000.23,0000.44,18.7,24.9,09.4,06.4,0677.2,31.1
2021-07-17T01:10:00Z,00000200,00000000,0000.05,0000.45,0000.41,0000.11,-000.01,-000.04,0000.09,0000.26,-000.15,18.7,25.0,09.2,06.3,0677.2,31.0
2021-07-17T01:11:00Z,00000200,00000000,0000.18,-000.14,0000.17,-000.02,-000.15,0000.22,0000.02,-000.12,0000.01,18.7,25.0,09.4,06.4,0677.2,31.0
2021-07-17T01:12:00Z,00000200,00000000,-000.27,0000.26,0000.34,0000.41,-000.01,0000.07,-000.28,0000.27,-000.02,18.7,24.9,09.4,06.4,0677.2,31.0
2021-07-17T01:13:00Z,00000200,00000000,0000.08,0000.31,0000.15,-000.33,-000.18,0000.51,0000.54,0000.14,0000.24,18.7,24.9,09.4,06.4,0677.2,31.0
2021-07-17T01:14:00Z,00000200,00000000,0000.98,0000.20,0000.38,0000.04,0000.09,0000.14,0000.10,0000.03,0000.17,18.7,24.9,09.4,06.4,0677.2,31.0
2021-07-17T01:15:00Z,00000200,00000000,0000.29,0000.40,0000.23,0000.61,-000.14,0000.20,0000.08,-000.04,-000.37,18.6,24.9,09.5,06.5,0677.2,31.0
2021-07-17T01:16:00Z,00000200,00000000,0000.29,0000.03,0000.43,0000.09,-000.08,-000.11,-000.01,0000.32,0000.29,18.6,24.9,09.4,06.5,0677.3,31.0
2021-07-17T01:17:00Z,00000200,00000000,0000.34,0000.34,0000.42,-000.11,-000.01,0000.00,0000.17,-000.36,0000.16,18.6,24.9,09.5,06.5,0677.3,31.0
2021-07-17T01:18:00Z,00000200,00000000,0000.03,0000.12,0000.20,0000.13,-000.03,0000.11,-000.09,0000.05,-000.30,18.6,24.8,09.6,06.5,0677.3,31.0
2021-07-17T01:19:00Z,00000200,00000000,0000.48,0000.19,-000.09,-000.12,0000.16,-000.04,0000.07,0000.40,0000.47,18.6,24.8,09.6,06.5,0677.3,31.0
2021-07-17T01:20:00Z,00000200,00000000,0000.56,0000.32,0000.43,-000.12,-000.15,0000.16,0000.09,-000.03,-000.17,18.6,24.8,09.5,06.5,0677.3,31.0
2021-07-17T01:21:00Z,00000200,00000000,0000.09,0000.11,0000.25,0000.04,-000.19,0000.03,0000.15,-000.30,0000.08,18.6,24.8,09.5,06.5,0677.3,31.0
2021-07-17T01:22:00Z,00000200,00000000,0000.59,-000.07,0000.27,0000.24,0000.10,0000.17,0000.05,0000.20,0000.22,18.7,24.9,09.5,06.5,0677.2,31.0
2021-07-17T01:23:00Z,00000200,00000000,-000.29,-000.08,0000.40,0000.39,-000.16,0000.12,0000.07,-000.02,-000.02,18.7,24.9,09.5,06.5,0677.2,31.0
2021-07-17T01:24:00Z,00000200,00000000,-000.27,-000.09,0000.24,0000.24,-000.07,0000.10,-000.12,0000.00,-000.31,18.7,24.9,09.5,06.5,0677.2,31.0
2021-07-17T01:25:00Z,00000200,00000000,0000.45,0000.05,0000.25,0000.06,-000.08,-000.08,0000.28,0000.44,0000.31,18.7,24.9,09.5,06.5,0677.2,31.0
2021-07-17T01:26:00Z,00000200,00000000,0000.54,0000.04,0000.29,0000.09,0000.04,-000.07,0000.04,-000.01,-000.23,18.7,24.9,09.5,06.5,0677.2,31.0
2021-07-17T01:27:00Z,00000200,00000000,0000.29,0000.32,0000.34,-000.28,-000.10,0000.34,-000.23,-000.14,0000.37,18.7,24.8,09.6,06.6,0677.2,31.0
2021-07-17T01:28:00Z,00000200,00000000,0000.72,0000.24,-000.08,-000.27,-000.31,0000.05,0000.18,0000.11,-000.08,18.7,24.9,09.6,06.5,0677.2,31.1
2021-07-17T01:29:00Z,00000200,00000000,-000.25,0000.11,0000.49,0000.02,0000.13,0000.21,-000.01,0000.13,-000.05,18.6,24.9,09.6,06.5,0677.2,31.0
2021-07-17T01:30:00Z,00000200,00000000,0000.23,0000.36,0000.06,0000.19,-000.14,-000.00,0000.22,0000.11,0000.11,18.6,24.8,09.6,06.6,0677.2,31.0
2021-07-17T01:31:00Z,00000200,00000000,-000.08,0000.28,0000.20,-000.06,0000.02,0000.16,-000.00,-000.02,0000.20,18.6,24.8,09.6,06.5,0677.2,31.0
2021-07-17T01:32:00Z,00000200,00000000,-000.08,0000.18,0000.40,-000.00,0000.14,0000.21,0000.23,0000.17,0000.05,18.6,24.8,09.7,06.7,0677.2,31.0
2021-07-17T01:33:00Z,00000200,00000000,0000.23,-000.14,0000.28,0000.09,-000.25,0000.00,-000.28,-000.16,0000.15,18.6,24.8,09.7,06.7,0677.2,31.0
2021-07-17T01:34:00Z,00000200,00000000,0000.12,0000.17,0000.09,-000.04,-000.08,0000.19,0000.13,-000.01,-000.16,18.6,24.8,09.7,06.6,0677.1,31.0
2021-07-17T01:35:00Z,00000200,00000000,0000.33,0000.59,0000.12,0000.31,0000.12,0000.06,0000.39,0000.19,0000.14,18.6,24.8,09.7,06.7,0677.1,31.0
2021-07-17T01:36:00Z,00000200,00000000,0000.28,-000.03,0000.53,0000.58,-000.27,0000.19,-000.02,0000.11,-000.11,18.6,24.8,09.6,06.6,0677.1,31.0
2021-07-17T01:37:00Z,00000200,00000000,0000.73,-000.02,0000.53,0000.05,-000.09,0000.46,-000.04,0000.34,0000.26,18.7,24.8,09.6,06.6,0677.1,31.0
2021-07-17T01:38:00Z,00000200,00000000,-000.32,-000.03,0000.50,0000.00,0000.11,0000.20,0000.09,-000.05,0000.11,18.7,24.9,09.5,06.5,0677.1,31.0
2021-07-17T01:39:00Z,00000200,00000000,0001.19,0000.37,0000.20,0000.25,0000.19,0000.10,0000.41,-000.02,-000.12,18.7,24.9,09.6,06.6,0677.1,31.0
2021-07-17T01:40:00Z,00000200,00000000,0000.67,0000.14,-000.05,0000.66,-000.18,0000.19,-000.21,-000.20,0000.29,18.7,24.9,09.5,06.6,0677.1,31.0
2021-07-17T01:41:00Z,00000200,00000000,-000.48,0000.26,0000.14,-000.02,0000.00,0000.30,0000.04,0000.27,-000.00,18.7,24.8,09.7,06.7,0677.1,31.0
2021-07-17T01:42:00Z,00000200,00000000,0000.08,0000.07,0000.22,0000.22,0000.02,-000.02,0000.07,-000.01,-000.18,18.7,24.9,09.7,06.6,0677.1,31.0
2021-07-17T01:43:00Z,00000200,00000000,-000.21,-000.04,0000.01,0000.67,-000.05,0000.19,-000.14,0000.08,0000.21,18.7,24.8,09.6,06.6,0677.1,31.0
2021-07-17T01:44:00Z,00000200,00000000,0000.21,0000.51,0000.09,0000.23,-000.39,0000.24,0000.15,0000.08,-000.20,18.7,24.8,09.7,06.7,0677.1,31.1
2021-07-17T01:45:00Z,00000200,00000000,0000.32,-000.21,-000.04,0000.34,0000.04,-000.20,-000.04,-000.19,-000.07,18.6,24.8,09.7,06.7,0677.0,31.0
2021-07-17T01:46:00Z,00000200,00000000,0000.14,0000.32,0000.26,0000.04,0000.11,0000.39,0000.09,0000.28,0000.21,18.6,24.8,09.7,06.6,0677.0,31.0
2021-07-17T01:47:00Z,00000200,00000000,0000.30,0000.22,-000.04,0000.38,-000.49,0000.07,0000.05,0000.10,-000.04,18.6,24.8,09.7,06.7,0677.0,31.0
2021-07-17T01:48:00Z,00000200,00000000,0000.08,0000.47,0000.43,-000.10,0000.06,0000.37,0000.18,0000.14,0000.14,18.6,24.8,09.8,06.7,0677.0,31.0
2021-07-17T01:49:00Z,00000200,00000000,0000.16,0000.36,-000.03,-000.08,-000.05,0000.31,0000.07,-000.48,0000.44,18.6,24.8,09.9,06.7,0677.0,31.0
2021-07-17T01:50:00Z,00000200,00000000,0000.49,-000.17,0000.30,0000.05,0000.04,0000.14,0000.40,0000.41,-000.20,18.6,24.8,09.9,06.8,0677.0,31.0
2021-07-17T01:51:00Z,00000200,00000000,-000.47,-000.14,0000.33,0000.15,-000.03,0000.01,-000.07,0000.18,-000.10,18.6,24.8,09.8,06.7,0677.0,31.0
2021-07-17T01:52:00Z,00000200,00000000,0000.52,0000.32,0000.41,0000.81,-000.00,0000.08,-000.08,0000.12,-000.09,18.7,24.8,09.8,06.7,0677.0,31.0
2021-07-17T01:53:00Z,00000200,00000000,0000.33,0000.06,-000.15,0000.43,0000.12,0000.01,0000.16,0000.10,0000.29,18.7,24.8,09.8,06.7,0677.0,31.0
2021-07-17T01:54:00Z,00000200,00000000,0000.06,0000.05,0000.09,0000.55,-000.37,0000.34,0000.07,0000.18,0000.01,18.7,24.8,09.8,06.7,0677.0,31.0
2021-07-17T01:55:00Z,00000200,00000000,0000.77,0000.11,0000.38,0000.45,0000.10,0000.01,-000.06,-000.13,0000.18,18.7,24.8,09.8,06.7,0677.0,31.0
2021-07-17T01:56:00Z,00000200,00000000,0000.55,0000.24,0000.27,-000.53,-000.08,0000.23,0000.22,-000.15,0000.32,18.7,24.8,09.8,06.7,0677.0,31.0
2021-07-17T01:57:00Z,00000200,40000000,,,,,,,-000.17,-000.03,-000.32,18.7,24.8,09.9,06.8,0677.2,31.0
2021-07-17T01:58:00Z,00000200,60000000,,,,,,,-000.02,0000.05,-000.08,18.5,24.9,09.7,06.5,0676.0,31.0
2021-07-17T01:59:00Z,00000200,20000000,,,,,,,-000.17,-000.19,-000.05,18.4,25.0,09.7,06.5,0676.0,31.0
